Regional Weather Roundup
Issued by NWS

Home | Current Version | Previous Version | Text Only | Print | Product List | Glossary Off
Versions: 1 2 3 4 5 6 7 8 9 10 11 12 13 14 15 16 17 18 19 20 21 22 23 24 25 26 27 28 29 30 31 32 33 34 35 36 37 38 39 40 41 42 43 44 45 46 47 48 49 50

000
ASUS43 KLSX 221807
RWRMO

WEATHER SUMMARY FOR MISSOURI
NATIONAL WEATHER SERVICE SPRINGFIELD MO
1200 PM CST WED FEB 22 2017

NOTE: "FAIR" INDICATES FEW OR NO CLOUDS BELOW 12,000 FEET WITH NO
       SIGNIFICANT WEATHER AND/OR OBSTRUCTIONS TO VISIBILITY.
       CURRENT SKY AND/OR WEATHER CONDITIONS ARE NOT AVAILABLE FOR
       CHILLICOTHE AND FARMINGTON.

MOZ001>031-035>038-043-044-053-054-221900-
...NORTHERN AND WESTERN MISSOURI...

CITY           SKY/WX    TMP DP  RH WIND       PRES   REMARKS
KANSAS CTY INT CLOUDY    67  38  34 SW14      29.71F
6HR MIN TEMP:  48; 6HR MAX TEMP:  68;

KANSAS C DTWN  PTSUNNY   72  42  34 S16       29.69F
6HR MIN TEMP:  44; 6HR MAX TEMP:  72;

LEE`S SUMMIT   MOSUNNY   70  48  45 S17       29.72F
6HR MIN TEMP:  50; 6HR MAX TEMP:  70;

ST JOSEPH      SUNNY     71  36  27 SW22      29.68F
6HR MIN TEMP:  42; 6HR MAX TEMP:  73;

CHILLICOTHE      N/A     71  45  39 S18       29.70F
6HR MIN TEMP:  45; 6HR MAX TEMP:  71;

KIRKSVILLE     SUNNY    N/A N/A N/A S17G23    29.72F
6HR MIN TEMP:  49; 6HR MAX TEMP:  66;


$$
MOZ066>068-077>081-088>096-101>105-221900-
...SOUTHWEST MISSOURI...

CITY           SKY/WX    TMP DP  RH WIND       PRES   REMARKS
SPRINGFIELD    CLOUDY    60  56  86 S10       29.84F
6HR MIN TEMP:  54; 6HR MAX TEMP:  60;

JOPLIN         SUNNY     71  54  54 S13       29.81F
6HR MIN TEMP:  50; 6HR MAX TEMP:  71;

BRANSON        PTSUNNY   61  55  82 CALM      29.86F

$$
MOZ032>034-039>042-045>050-055>058-069>072-221900-
...CENTRAL MISSOURI...

CITY           SKY/WX    TMP DP  RH WIND       PRES   REMARKS
COLUMBIA       CLOUDY    58  57  97 S13       29.81F
6HR MIN TEMP:  50; 6HR MAX TEMP:  58;

JEFFERSON CITY CLOUDY    58  55  90 S7        29.82S
6HR MIN TEMP:  53; 6HR MAX TEMP:  58;

ROLLA          CLOUDY    58  56  93 S10       29.81F
6HR MIN TEMP:  52; 6HR MAX TEMP:  58;

SEDALIA        MOSUNNY   66  55  67 S13G23    29.79F
6HR MIN TEMP:  53; 6HR MAX TEMP:  66;

WHITEMAN AFB   PTSUNNY   67  56  66 SW20      29.75F
WARRENSBURG    PTSUNNY   64  50  59 S16G23    29.77F
OSAGE BEACH    CLOUDY    59  55  87 S9        29.83F

$$
MOZ051-052-059>065-221900-
...EAST CENTRAL MISSOURI...

CITY           SKY/WX    TMP DP  RH WIND       PRES   REMARKS
ST LOUIS INTL  CLOUDY    60  55  83 W6        29.82F
6HR MIN TEMP:  50; 6HR MAX TEMP:  60;

SPIRIT OF STL  CLOUDY    59  56  89 SW6       29.81F
6HR MIN TEMP:  52; 6HR MAX TEMP:  59;

ST CHARLES     CLOUDY    57  56  96 SW7       29.81F FOG
6HR MIN TEMP:  51; 6HR MAX TEMP:  57;


$$
MOZ072>076-082>087-097>100-106>115-221900-
...SOUTH CENTRAL AND SOUTHEAST MISSOURI...

CITY           SKY/WX    TMP DP  RH WIND       PRES   REMARKS
CAPE GIRARDEAU MOSUNNY   66  55  67 S8        29.85F
6HR MIN TEMP:  56; 6HR MAX TEMP:  68;

FARMINGTON     SUNNY     69  56  62 S14       29.83F
6HR MIN TEMP:  57; 6HR MAX TEMP:  69;

POPLAR BLUFF   CLOUDY    65  58  78 S3        29.85F
6HR MIN TEMP:  57; 6HR MAX TEMP:  66;

WEST PLAINS    MOSUNNY   65  56  72 S10       29.86F
6HR MIN TEMP:  54; 6HR MAX TEMP:  65;


$$



USA.gov is the U.S. government's official web portal to all federal, state and local government web resources and services.